INMARSAT 4 F2

operational
NORAD ID: 28899 Int'l Des: 2005-044 Owner: INMRL Country: UK
HEOCIRCULARGSO

关于 INMARSAT 4 F2

正在加载描述...

实时位置

正在加载3D地球...

即将过境

高度历史

Altitude vs Time

uPlot chart will show altitude changes over time

两行轨道根数

1 28899U 05044A 26061.63437769 -.00000274 00000-0 00000-0 0 9993
2 28899 4.9554 43.8057 0002555 315.7338 172.7396 1.00272033 74452
Epoch: Mar 2, 2026 • Age: 38 hours

当前状态

高度 35795.1 km
速度 3.07 km/s
星下点 4.75°N, 143.58°E
发射日期 Nov 8, 2005
运行时间 20.3 years
类型 communications

技术详情

分类 Payload
质量 5958.00 kg
干质量 3271.00 kg
总质量 5958.00 kg
长度 7.00 m
直径 2.90 m
跨度 45.00 m
形状 Box + 2 Pan + Dish
制造商 ASTT
平台类型 Eurostar 3000GM
阶段状态 In Orbit
所有者/国家 INMRL/UK

大型星座

Loading constellations...